This demonstration page uses our WeatherBlox Daily Observations layout. Learn more.

Left ArrowRight Arrow

44.89941, -97.11507

Hourly Observations for July 12, 2020

Temp ( °F °C ) Dew Point ( °F °C ) Humidity (%) Winds ( mph kmh ) Pressure ( in mb ) Visibility ( mi km ) Precip ( " mm )
12:53 am 00:53 Clear 62 16.7 57 13.9 84 84 NNW 3 6 29.99 1016 10 16 0.00 0.00
1:53 am 01:53 Clear 58 14.4 56 13.3 93 93 NNW 3 6 30.01 1016 10 16 0.00 0.00
2:53 am 02:53 Clear 58 14.4 56 13.3 93 93 NNW 3 6 30.00 1016 10 16 0.00 0.00
3:53 am 03:53 Clear 57 13.9 55 12.8 93 93 N 3 6 29.99 1016 10 16 0.00 0.00
4:53 am 04:53 Clear 56 13.3 55 12.8 97 97 NNW 5 7 29.99 1016 10 16 0.00 0.00
5:53 am 05:53 Clear 57 13.9 55 12.8 93 93 N 5 7 30.01 1016 10 16 0.00 0.00
6:53 am 06:53 Sunny 59 15 57 13.9 93 93 Calm 30.04 1017 10 16 0.00 0.00
7:53 am 07:53 Sunny 65 18.3 60 15.6 84 84 Calm 30.03 1017 10 16 0.00 0.00
8:53 am 08:53 Sunny 70 21.1 61 16.1 73 73 Calm 30.03 1017 10 16 0.00 0.00
9:53 am 09:53 Sunny 74 23.3 62 16.7 67 67 S 6 9 30.03 1017 10 16 0.00 0.00
10:53 am 10:53 Sunny 76 24.4 60 15.6 58 58 S 5 7 30.02 1017 10 16 0.00 0.00
11:53 am 11:53 Sunny 77 25 58 14.4 52 52 S 6 9 30.00 1016 10 16 0.00 0.00
12:53 pm 12:53 Sunny 78 25.6 57 13.9 48 48 Calm 29.97 1015 10 16 0.00 0.00
1:53 pm 13:53 Sunny 80 26.7 58 14.4 47 47 Calm 29.96 1014 10 16 0.00 0.00
2:53 pm 14:53 Sunny 81 27.2 56 13.3 42 42 S 7 11 29.94 1014 10 16 0.00 0.00
3:53 pm 15:53 Sunny 82 27.8 57 13.9 42 42 SSE 9 15 29.93 1014 10 16 0.00 0.00
4:53 pm 16:53 Mostly Cloudy 82 27.8 58 14.4 44 44 S 8 13 29.93 1013 10 16 0.00 0.00
5:53 pm 17:53 Mostly Cloudy 81 27.2 60 15.6 49 49 S 9 15 29.91 1013 10 16 0.00 0.00
6:53 pm 18:53 Sunny 81 27.2 59 15 47 47 S 8 13 29.88 1012 10 16 0.00 0.00
7:53 pm 19:53 Sunny 78 25.6 59 15 52 52 S 6 9 29.87 1012 10 16 0.00 0.00
8:53 pm 20:53 Sunny 76 24.4 60 15.6 58 58 SE 7 11 29.85 1011 10 16 0.00 0.00
9:53 pm 21:53 Clear 73 22.8 60 15.6 64 64 ESE 6 9 29.85 1011 10 16 0.00 0.00
10:53 pm 22:53 Clear 70 21.1 60 15.6 71 71 SSE 8 13 29.87 1011 10 16 0.00 0.00
11:53 pm 23:53 Clear 68 20 60 15.6 76 76 SSE 12 19 29.87 1012 10 16 0.00 0.00

Powered by AerisWeather